Regional Weather Roundup
Issued by NWS

Home | Current Version | Previous Version | Text Only | Print | Product List | Glossary On
Versions: 1 2 3 4 5 6 7 8 9 10 11 12 13 14 15 16 17 18 19 20 21 22 23 24 25 26 27 28
000
ASUS45 KBOI 301510
RWRID

IDAHO REGIONAL WEATHER ROUNDUP
NATIONAL WEATHER SERVICE BOISE ID
900 AM MDT SAT APR 30 2016

NOTE: "FAIR" INDICATES FEW OR NO CLOUDS BELOW 12000 FEET
WITH NO SIGNIFICANT WEATHER AND/OR OBSTRUCTIONS TO VISIBILITY

IDZ012-014-301600-
SOUTHWEST IDAHO


CITY           SKY/WX    TMP DP  RH WIND       PRES   REMARKS
BOISE          SUNNY     50  36  58 NW13      30.05R
CALDWELL       SUNNY     50  39  66 NW15G23   30.10
MOUNTAIN HOME  SUNNY     49  37  64 NW22      30.03R
$$

IDZ016-017-301600-
SOUTHCENTRAL IDAHO


CITY           SKY/WX    TMP DP  RH WIND       PRES   REMARKS
BURLEY         CLOUDY    41  37  86 W10       30.03R
JEROME         CLOUDY    40  38  93 SW9       30.04R WCI  34
TWIN FALLS     CLOUDY    41  36  82 SW12      30.05R
$$

IDZ019>023-301600-
SOUTHEAST IDAHO


CITY           SKY/WX    TMP DP  RH WIND       PRES   REMARKS
IDAHO FALLS    CLOUDY    42  35  76 N6        30.02R
POCATELLO      CLOUDY    43  41  93 W5        30.02R
REXBURG        PTSUNNY   39  34  82 CALM      30.01R
$$

IDZ006-010-011-018-031-032-301600-
CENTRAL IDAHO MOUNTAINS


CITY           SKY/WX    TMP DP  RH WIND       PRES   REMARKS
MCCALL         PTSUNNY   43  35  73 W10       30.09R
HAILEY         PTSUNNY   39  34  81 NW6       30.04R WCI  35
STANLEY          N/A     38  27  64 N5        30.08R WCI  34
SALMON         CLOUDY    43  34  70 CALM      30.09S
CHALLIS        PTSUNNY   43  29  57 CALM      30.08R
$$

IDZ002-004-006-007-026-301600-
NORTHERN IDAHO


CITY           SKY/WX    TMP DP  RH WIND       PRES   REMARKS
LEWISTON       LGT RAIN  50  47  89 CALM      30.19R
LOWELL           N/A     48  44  86 CALM      30.21R
COEUR D`ALENE  CLOUDY    46  43  87 NE7       30.18R
MULLAN PASS    CLOUDY    34  33  96 CALM      30.16R
$$




USA.gov is the U.S. government's official web portal to all federal, state and local government web resources and services.